Location: Presov
(49.0000°N, 21.2500°E)
Time: 10:47:32
(UTC+02:00)

A-11 Canister half - Pass Details

Date: 24 April 2021
Orbit: 1526 x 1683 km, 47.3° (Epoch: 11 May)

Event Time Altitude Azimuth Distance (km) Brightness Sun altitude
Rises 22:11:18 0° 289° (WNW) 4,940 12.6 -20.4°
Reaches altitude 10° 22:15:26 10° 276° (W) 3,947 11.7 -20.8°
Maximum altitude 22:22:27 22° 231° (SW) 3,086 10.5 -21.5°
Enters shadow 22:27:42 14° 195° (SSW) 3,566 10.5 -22.0°
